Location: ??????????
(54.4061°N, 22.6114°E)
Time: 15:51:16
(UTC+00:00)

NOSS 3-2 (C) - Pass Details

Date: 23 October 2019
Orbit: 818 x 1394 km, 63.4° (Epoch: 11 November)

Event Time Altitude Azimuth Distance (km) Brightness Sun altitude
Rises 18:22:02 0° 231° (SW) 3,463 6.8 -27.7°
Reaches altitude 10° 18:24:23 10° 232° (SW) 2,581 6.1 -28.0°
Maximum altitude 18:30:24 83° 320° (NW) 1,003 3.5 -28.8°
Enters shadow 18:31:43 60° 39° (NE) 1,149 3.7 -29.0°
